STARLINK-32791, 62530

Orbit data source: Space-Track

STARLINK-32791, 62530 is a payload satellite owned by SpaceX/Seattle (US) in LEO that was launched on Wed, 08 Jan 2025 UTC via an FALCON 9 launch vehicle from the Air Force Eastern Test Range (AFETR). Payload-class satellites include a variety of spacecraft equipped with specific instruments for various scientific and technological missions. These include communications satellites like Starlink; space stations such as the ISS; scientific satellites like the Hubble; Earth observation satellites from companies like Planet Labs, Umbra, and HawkEye 360; GPS; miniature CubeSats for education and research; and military/defense satellites.

Loading next visibility...
Identifier
62530, 2025-004V
Orbit
LEO
Country
Flag of USUS
Related business
Manufacturer
SpaceX/Seattle
Mission
Operational Commercial Communications
Bus & Motor
STARLINK V2M, Unknown motor
Mass
730 kg wet, ~700 kg dry
Launch date (UTC)
2025-01-08 (1 year ago)
Launch vehicle
FALCON 9
Launch site
Air Force Eastern Test Range (AFETR)
Object type
Payload
Rocket body
Debris
Shape & HBR
Box + 2 Pan, 17.7 m
Radar Cross Section
33.884 m², Large (>1 m²)

Expand to show TLE details & history
Last TLE update: 1 day ago

TLE from 1 day ago
0 STARLINK-32791
1 62530U 25004V   26035.04279184  .00044653  00000-0  16211-2 0  9993
2 62530  43.0017  49.8091 0001394 268.7969  91.2723 15.27606534 61312
Epoch: 2026-02-04T01:01Z
TLE epoch observation values (Epoch: 2026-02-04T01:01:37.214Z)
Latitude
-0.00004°
Longitude
-99.81105°
Altitude
482.767 km
Speed
7.626 km/s
True Right ascension
03h 19m 14s
True Declination
0° 00' 00"
Sunlit
Object was in daylight at epoch
Visualization orbit readout
Latitude
Unknown
Longitude
Unknown
Altitude
Unknown
Speed
Unknown
Apparent Right ascension
Unknown
Apparent Declination
Unknown
Sunlit
N/A
Visualization observer readout
Local Sidereal Time
09:22:52
Azimuth
Unknown
Elevation
Unknown
Doppler factor
Unknown
Orbital elements
Apogee altitude
485.871 km
Perigee altitude
483.958 km
Semi-major axis
6,863.052 km
Eccentricity
0.00014
Inclination
43.0017°
RAAN
49.8091°
Arg. of periapsis
268.7969°
True anomaly
91.28827°
Mean anomaly
91.2723°
Eccentric anomaly
91.28029°
Mean motion
3.8174 °/min
Orbital period
94.31 mins
BSTAR
0.0016211
Loading maneuver chart data...
Computing Atmospheric mass density...
Loading historical data...
Loading historical data...
Loading historical data...
Loading historical data...
Loading historical data...
Loading historical data...
Loading historical data...

Documentation

Showing up to 5 results
|